Regional Weather Roundup
Issued by NWS

Home | Current Version | Previous Version | Text Only | Print | Product List | Glossary On
Versions: 1 2 3 4 5 6 7 8 9 10 11 12 13 14 15 16 17 18 19 20 21 22 23 24 25 26 27 28 29 30 31 32 33 34 35 36 37 38 39 40 41 42 43 44 45 46 47 48 49 50
000
ASUS43 KMKX 171700
RWRWI

WISCONSIN REGIONAL WEATHER ROUNDUP
NATIONAL WEATHER SERVICE MILWAUKEE/SULLIVAN WI
1200 PM CDT WED SEP 17 2014

NOTE: "FAIR" INDICATES FEW OR NO CLOUDS BELOW 12,000 FEET WITH NO
SIGNIFICANT WEATHER AND/OR OBSTRUCTIONS TO VISIBILITY.

WIZ001-002-006>008-014>016-023>028-171800-
NORTHWEST WISCONSIN

CITY           SKY/WX    TMP DP  RH WIND       PRES   REMARKS
SUPERIOR ARPT  SUNNY     64  52  64 SW5       29.94S
ASHLAND        SUNNY     67  50  54 N5        29.95S
HAYWARD        SUNNY     66  48  52 NW7       29.95F
SIREN          SUNNY     65  50  57 W5        29.96S
RICE LAKE      SUNNY     64  50  60 W6        29.98S
LADYSMITH      PTSUNNY   63  52  66 CALM      29.98S
EAU CLAIRE     NOT AVBL
MENOMONIE      NOT AVBL
NEW RICHMOND   NOT AVBL
OSCEOLA        NOT AVBL
$$

WIZ003>005-009-010-017-018-171800-
NORTH CENTRAL WISCONSIN

CITY           SKY/WX    TMP DP  RH WIND       PRES   REMARKS
WOODRUFF       SUNNY     63  47  57 W6        29.95F
RHINELANDER    SUNNY     65  47  52 W10       29.96F
EAGLE RIVER    SUNNY     64  42  43 N8        29.94F
LAND O LAKES   SUNNY     64  44  48 W6        29.95F
PHILLIPS       MOSUNNY   63  51  64 SW6       29.96S
TOMAHAWK       SUNNY     64  47  54 W3        29.96F
MEDFORD        MOSUNNY   62  49  62 W5        29.97F
MERRILL        PTSUNNY   64  51  62 W6        29.96F
$$

WIZ029-030-035-036-043>047-171800-
CENTRAL WISCONSIN

CITY           SKY/WX    TMP DP  RH WIND       PRES   REMARKS
WAUSAU         NOT AVBL
MOSINEE        SUNNY     63  52  67 W8        29.99S
MARSHFIELD     NOT AVBL
STEVENS POINT  MOSUNNY   62  46  56 W10       29.98F
WAUPACA        NOT AVBL
WAUTOMA        NOT AVBL
WISC RAPIDS    NOT AVBL
CAMP DOUGLAS   NOT AVBL
$$

WIZ011>013-019>022-031-037>040-048>050-171800-
NORTHEAST WISCONSIN

CITY           SKY/WX    TMP DP  RH WIND       PRES   REMARKS
ANTIGO         PTSUNNY   63  48  57 W13       29.96F
STURGEON BAY   SUNNY     63  46  55 W10       29.97F
GREEN BAY      SUNNY     67  48  50 W9        29.97F
MANITOWOC      NOT AVBL
APPLETON       MOSUNNY   64  46  52 W7        29.99S
CLINTONVILLE   MOSUNNY   64  46  52 W10G16    29.97F
OSHKOSH        NOT AVBL
$$

WIZ032>034-041-042-053>061-171800-
SOUTHWEST WISCONSIN

CITY           SKY/WX    TMP DP  RH WIND       PRES   REMARKS
LA CROSSE      SUNNY     66  52  60 S8        29.99F
SPARTA         PTSUNNY   64  49  59 W5        30.00F
VIROQUA        FAIR      64  49  59 SW6       30.01S
BOSCOBEL       NOT AVBL
PRAIRIE DU CHI NOT AVBL
PLATTEVILLE    PTSUNNY   64  48  55 CALM      30.02F
$$

WIZ056-057-062-063-064-067-068-171800-
SOUTH CENTRAL WISCONSIN

CITY           SKY/WX    TMP DP  RH WIND       PRES   REMARKS
BARABOO/DELLS  MOSUNNY   64  46  51 SW7       30.00F
LONE ROCK      NOT AVBL
WATERTOWN      PTSUNNY   64  46  51 SW6       30.00F
MADISON        NOT AVBL
MIDDLETON      PTSUNNY   65  47  50 W5        30.02S
MONROE         MOSUNNY   63  46  55 SW8       30.02S
JANESVILLE     PTSUNNY   66  45  45 SW6       30.01F
$$

WIZ051-052-058>065-066-070>072-171800-
SOUTHEAST WISCONSIN

CITY           SKY/WX    TMP DP  RH WIND       PRES   REMARKS
MILWAUKEE      MOSUNNY   65  43  44 CALM      30.01F
WAUKESHA       SUNNY     63  45  51 W6        30.02F
MILWAUKEE/TIMM SUNNY     61  41  48 W5        30.01F
RACINE         NOT AVBL
BURLINGTON     MOSUNNY   63  43  47 W5        30.02S
KENOSHA        NOT AVBL
FOND DU LAC    NOT AVBL
SHEBOYGAN      NOT AVBL
WEST BEND      SUNNY     63  43  48 SW6       30.00F
JUNEAU         PTSUNNY   62  48  59 SW9       30.02S
$$

LSZ147-162-171800-
LAKE SUPERIOR

STATION/POSITION TIME  TEMP    WIND        PRES    WAVE
                       AIR SEA DIR/SP/G            HT/PER
                 (UTC) (F)     (DEG/KT/KT) (MB)    (FT/S)
W MID LAKE BUOY  1550   44 46   60/ 19/ 21 1015.1R   3/ 5
DEVILS ISLAND    1600   48      50/ 18/ 19 1015.5R
PORT WING        1600   61     190/  3/  5 1014.2S
SAXON HARBOR     1600   58        CALM     1014.6R
$$

LMZ867-665-643>646-171800-
LAKE MICHIGAN

STATION/POSITION TIME  TEMP    WIND        PRES    WAVE
                       AIR SEA DIR/SP/G            HT/PER
                 (UTC) (F)     (DEG/KT/KT) (MB)    (FT/S)
N MID LAKE BUOY  1550   57 58  250/ 10/ 12 1014.8F   2/ 3
NORTHPORT PIER   1600   63     270/  3/  9 1014.6F
KEWAUNEE LAKESHO 1600   63     280/  6/  9 1014.3F
SHEBOYGAN LAKESH 1600   62 51  280/  5/  6 1016.0F
PORT WASHINGTON  1600   65     260/  3/ 10 1016.6F
ATWATER BUOY     1600   62     260/  2/  2 1017.5S
MILWAUKEE LAKESH 1600   62     260/  8/ 10   N/A
S MID LAKE BUOY  1550   61 65  270/  6/  8 1016.9S   1/ 4
KENOSHA   LAKESH 1600   62     320/  4/  6 1016.3F
$$

TC  - TEMPERATURE IN CELSIUS
VSB - VISIBILITY IN STATUTE MILES
WCI - WIND CHILL INDEX
HX  - HEAT INDEX



USA.gov is the U.S. government's official web portal to all federal, state and local government web resources and services.